Time,TemperatureF,DewpointF,PressureIn,WindDirection,WindDirectionDegrees,WindSpeedMPH,WindSpeedGustMPH,Humidity,HourlyPrecipIn,Conditions,Clouds,dailyrainin,SoftwareType,DateUTC
2013-05-11 00:01:00,77.5,56.9,30.18,SSE,149,0.0,0.0,49,0.00,,---,0.00,VWS V14.01,2013-05-11 04:01:00,
2013-05-11 00:02:00,77.5,56.9,30.18,SE,144,0.0,0.0,49,0.00,,---,0.00,VWS V14.01,2013-05-11 04:02:00,
2013-05-11 00:03:00,77.5,56.9,30.18,SSE,147,0.0,0.0,49,0.00,,---,0.00,VWS V14.01,2013-05-11 04:03:00,
2013-05-11 00:08:00,77.4,57.3,30.18,SE,136,3.6,3.6,50,0.00,,---,0.00,VWS V14.01,2013-05-11 04:08:00,
2013-05-11 00:13:00,77.4,57.3,30.18,SE,143,0.0,0.0,50,0.00,,---,0.00,VWS V14.01,2013-05-11 04:13:00,
2013-05-11 00:18:00,77.4,57.3,30.18,SE,131,0.0,0.0,50,0.00,,---,0.00,VWS V14.01,2013-05-11 04:18:00,
2013-05-11 00:23:00,77.4,57.3,30.18,SE,146,0.0,0.0,50,0.00,,---,0.00,VWS V14.01,2013-05-11 04:23:00,
2013-05-11 00:28:00,77.2,57.1,30.18,SE,146,0.0,0.0,50,0.00,,---,0.00,VWS V14.01,2013-05-11 04:28:00,
2013-05-11 00:33:00,77.0,57.0,30.18,SE,146,0.0,0.0,50,0.00,,---,0.00,VWS V14.01,2013-05-11 04:33:00,
2013-05-11 00:38:00,76.8,57.3,30.18,SE,146,0.0,0.0,51,0.00,,---,0.00,VWS V14.01,2013-05-11 04:38:00,
2013-05-11 00:43:00,76.6,57.7,30.18,SE,146,0.0,0.0,52,0.00,,---,0.00,VWS V14.01,2013-05-11 04:43:00,
2013-05-11 00:48:00,76.5,58.1,30.18,SE,146,0.0,0.0,53,0.00,,---,0.00,VWS V14.01,2013-05-11 04:48:00,
2013-05-11 00:53:00,76.5,58.6,30.18,SE,146,0.0,0.0,54,0.00,,---,0.00,VWS V14.01,2013-05-11 04:53:00,
2013-05-11 00:59:00,76.3,58.4,30.18,SE,146,0.0,0.0,54,0.00,,---,0.00,VWS V14.01,2013-05-11 04:59:00,
2013-05-11 01:04:00,75.9,58.1,30.18,SE,146,0.0,0.0,54,0.00,,---,0.00,VWS V14.01,2013-05-11 05:04:00,
2013-05-11 01:09:00,75.7,58.4,30.18,SE,146,0.0,0.0,55,0.00,,---,0.00,VWS V14.01,2013-05-11 05:09:00,
2013-05-11 01:14:00,75.7,59.9,30.18,SE,146,0.0,0.0,58,0.00,,---,0.00,VWS V14.01,2013-05-11 05:14:00,
2013-05-11 01:19:00,75.6,61.6,30.18,SE,146,0.0,0.0,62,0.00,,---,0.00,VWS V14.01,2013-05-11 05:19:00,
2013-05-11 01:24:00,75.4,61.9,30.18,SE,146,0.0,0.0,63,0.00,,---,0.00,VWS V14.01,2013-05-11 05:24:00,
2013-05-11 01:29:00,75.4,61.9,30.18,SE,146,0.0,0.0,63,0.00,,---,0.00,VWS V14.01,2013-05-11 05:29:00,
2013-05-11 01:35:00,75.2,61.8,30.18,SE,146,0.0,0.0,63,0.00,,---,0.00,VWS V14.01,2013-05-11 05:35:00,
2013-05-11 01:40:00,75.0,62.0,30.18,SE,146,0.0,0.0,64,0.00,,---,0.00,VWS V14.01,2013-05-11 05:40:00,
2013-05-11 01:45:00,74.8,62.3,30.18,SE,146,0.0,0.0,65,0.00,,---,0.00,VWS V14.01,2013-05-11 05:45:00,
2013-05-11 01:50:00,74.7,62.6,30.18,SE,146,0.0,0.0,66,0.00,,---,0.00,VWS V14.01,2013-05-11 05:50:00,
2013-05-11 01:55:00,74.5,62.4,30.18,SE,146,0.0,0.0,66,0.00,,---,0.00,VWS V14.01,2013-05-11 05:55:00,
2013-05-11 02:00:00,74.3,62.6,30.18,SE,146,0.0,0.0,67,0.00,,---,0.00,VWS V14.01,2013-05-11 06:00:00,
2013-05-11 02:05:00,74.1,62.5,30.18,SE,146,0.0,0.0,67,0.00,,---,0.00,VWS V14.01,2013-05-11 06:05:00,
2013-05-11 02:10:00,73.9,62.7,30.18,SE,146,0.0,0.0,68,0.00,,---,0.00,VWS V14.01,2013-05-11 06:10:00,
2013-05-11 02:15:00,73.9,62.7,30.18,SE,146,0.0,0.0,68,0.00,,---,0.00,VWS V14.01,2013-05-11 06:15:00,
2013-05-11 02:20:00,73.8,63.0,30.18,SE,146,0.0,0.0,69,0.00,,---,0.00,VWS V14.01,2013-05-11 06:20:00,
2013-05-11 02:25:00,73.6,62.8,30.18,SE,146,0.0,0.0,69,0.00,,---,0.00,VWS V14.01,2013-05-11 06:25:00,
2013-05-11 02:30:00,73.6,63.2,30.18,SE,146,0.0,0.0,70,0.00,,---,0.00,VWS V14.01,2013-05-11 06:30:00,
2013-05-11 02:35:00,73.4,63.0,30.18,SE,146,0.0,0.0,70,0.00,,---,0.00,VWS V14.01,2013-05-11 06:35:00,
2013-05-11 02:41:00,73.4,63.4,30.18,SE,146,0.0,0.0,71,0.00,,---,0.00,VWS V14.01,2013-05-11 06:41:00,
2013-05-11 02:46:00,73.4,63.4,30.18,SE,146,0.0,0.0,71,0.00,,---,0.00,VWS V14.01,2013-05-11 06:46:00,
2013-05-11 02:51:00,73.2,64.1,30.18,SE,146,0.0,0.0,73,0.00,,---,0.00,VWS V14.01,2013-05-11 06:51:00,
2013-05-11 02:56:00,73.2,64.4,30.18,SE,146,0.0,0.0,74,0.00,,---,0.00,VWS V14.01,2013-05-11 06:56:00,
2013-05-11 03:01:00,73.2,64.4,30.15,SE,146,0.0,0.0,74,0.00,,---,0.00,VWS V14.01,2013-05-11 07:01:00,
2013-05-11 03:06:00,73.2,64.4,30.15,SE,146,0.0,0.0,74,0.00,,---,0.00,VWS V14.01,2013-05-11 07:06:00,
2013-05-11 03:11:00,73.2,64.4,30.15,SE,146,0.0,0.0,74,0.00,,---,0.00,VWS V14.01,2013-05-11 07:11:00,
2013-05-11 03:16:00,73.0,64.7,30.15,SE,146,0.0,0.0,75,0.00,,---,0.00,VWS V14.01,2013-05-11 07:16:00,
2013-05-11 03:21:00,73.0,64.7,30.15,SE,146,0.0,0.0,75,0.00,,---,0.00,VWS V14.01,2013-05-11 07:21:00,
2013-05-11 03:26:00,73.0,65.0,30.15,SE,146,0.0,0.0,76,0.00,,---,0.00,VWS V14.01,2013-05-11 07:26:00,
2013-05-11 03:31:00,73.0,65.0,30.15,SE,146,0.0,0.0,76,0.00,,---,0.00,VWS V14.01,2013-05-11 07:31:00,
2013-05-11 03:37:00,73.0,65.0,30.15,SE,146,0.0,0.0,76,0.00,,---,0.00,VWS V14.01,2013-05-11 07:37:00,
2013-05-11 03:42:00,72.9,64.9,30.15,SE,146,0.0,0.0,76,0.00,,---,0.00,VWS V14.01,2013-05-11 07:42:00,
2013-05-11 03:47:00,72.9,65.2,30.15,SE,146,0.0,0.0,77,0.00,,---,0.00,VWS V14.01,2013-05-11 07:47:00,
2013-05-11 03:52:00,72.9,65.2,30.15,SE,146,0.0,0.0,77,0.00,,---,0.00,VWS V14.01,2013-05-11 07:52:00,
2013-05-11 03:57:00,72.9,65.2,30.15,SE,146,0.0,0.0,77,0.00,,---,0.00,VWS V14.01,2013-05-11 07:57:00,
2013-05-11 04:02:00,72.7,65.1,30.15,SE,146,0.0,0.0,77,0.00,,---,0.00,VWS V14.01,2013-05-11 08:02:00,
2013-05-11 04:07:00,72.7,65.1,30.15,SE,146,0.0,0.0,77,0.00,,---,0.00,VWS V14.01,2013-05-11 08:07:00,
2013-05-11 04:12:00,72.7,65.4,30.15,SE,146,0.0,0.0,78,0.00,,---,0.00,VWS V14.01,2013-05-11 08:12:00,
2013-05-11 04:17:00,72.7,65.4,30.15,SE,146,0.0,0.0,78,0.00,,---,0.00,VWS V14.01,2013-05-11 08:17:00,
2013-05-11 04:22:00,72.5,65.3,30.15,SE,146,0.0,0.0,78,0.00,,---,0.00,VWS V14.01,2013-05-11 08:22:00,
2013-05-11 04:27:00,72.5,65.3,30.15,SE,146,0.0,0.0,78,0.00,,---,0.00,VWS V14.01,2013-05-11 08:27:00,
2013-05-11 04:32:00,72.5,65.6,30.15,SE,146,0.0,0.0,79,0.00,,---,0.00,VWS V14.01,2013-05-11 08:32:00,
2013-05-11 04:37:00,72.5,65.6,30.15,SE,146,0.0,0.0,79,0.00,,---,0.00,VWS V14.01,2013-05-11 08:37:00,
2013-05-11 04:42:00,72.3,65.4,30.15,SE,146,0.0,0.0,79,0.00,,---,0.00,VWS V14.01,2013-05-11 08:42:00,
2013-05-11 04:47:00,72.3,65.4,30.15,SE,146,0.0,0.0,79,0.00,,---,0.00,VWS V14.01,2013-05-11 08:47:00,
2013-05-11 04:52:00,72.1,65.3,30.15,SE,146,0.0,0.0,79,0.00,,---,0.00,VWS V14.01,2013-05-11 08:52:00,
2013-05-11 04:57:00,72.3,65.8,30.15,SE,146,0.0,0.0,80,0.00,,---,0.00,VWS V14.01,2013-05-11 08:57:00,
2013-05-11 05:02:00,72.3,65.8,30.15,SE,146,0.0,0.0,80,0.00,,---,0.00,VWS V14.01,2013-05-11 09:02:00,
2013-05-11 05:07:00,72.3,65.8,30.15,SE,146,0.0,0.0,80,0.00,,---,0.00,VWS V14.01,2013-05-11 09:07:00,
2013-05-11 05:13:00,72.3,65.8,30.15,SE,146,0.0,0.0,80,0.00,,---,0.00,VWS V14.01,2013-05-11 09:13:00,
2013-05-11 05:18:00,72.1,65.6,30.15,SE,146,0.0,0.0,80,0.00,,---,0.00,VWS V14.01,2013-05-11 09:18:00,
2013-05-11 05:23:00,72.1,65.6,30.15,SE,146,0.0,0.0,80,0.00,,---,0.00,VWS V14.01,2013-05-11 09:23:00,
2013-05-11 05:28:00,72.1,65.6,30.15,SE,146,0.0,0.0,80,0.00,,---,0.00,VWS V14.01,2013-05-11 09:28:00,
2013-05-11 05:33:00,72.1,65.6,30.15,SE,146,0.0,0.0,80,0.00,,---,0.00,VWS V14.01,2013-05-11 09:33:00,
2013-05-11 05:38:00,72.1,65.6,30.15,SE,146,0.0,0.0,80,0.00,,---,0.00,VWS V14.01,2013-05-11 09:38:00,
2013-05-11 05:43:00,72.1,66.0,30.15,SE,146,0.0,0.0,81,0.00,,---,0.00,VWS V14.01,2013-05-11 09:43:00,
2013-05-11 05:48:00,72.1,66.0,30.15,SE,146,0.0,0.0,81,0.00,,---,0.00,VWS V14.01,2013-05-11 09:48:00,
2013-05-11 05:53:00,72.1,66.0,30.15,SE,146,0.0,0.0,81,0.00,,---,0.00,VWS V14.01,2013-05-11 09:53:00,
2013-05-11 05:58:00,72.0,65.8,30.15,SE,146,0.0,0.0,81,0.00,,---,0.00,VWS V14.01,2013-05-11 09:58:00,
2013-05-11 06:03:00,72.0,65.8,30.15,SE,146,0.0,0.0,81,0.00,,---,0.00,VWS V14.01,2013-05-11 10:03:00,
2013-05-11 06:09:00,71.8,65.6,30.15,SE,146,0.0,0.0,81,0.00,,---,0.00,VWS V14.01,2013-05-11 10:09:00,
2013-05-11 06:14:00,71.8,65.6,30.15,SE,146,0.0,0.0,81,0.00,,---,0.00,VWS V14.01,2013-05-11 10:14:00,
2013-05-11 06:19:00,71.6,65.5,30.15,SE,145,0.0,0.0,81,0.00,,---,0.00,VWS V14.01,2013-05-11 10:19:00,
2013-05-11 06:24:00,71.6,65.5,30.15,SE,145,0.0,0.0,81,0.00,,---,0.00,VWS V14.01,2013-05-11 10:24:00,
2013-05-11 06:30:00,71.6,65.5,30.15,SE,146,0.0,0.0,81,0.00,,---,0.00,VWS V14.01,2013-05-11 10:30:00,
2013-05-11 06:35:00,71.6,65.5,30.15,SE,145,0.0,0.0,81,0.00,,---,0.00,VWS V14.01,2013-05-11 10:35:00,
2013-05-11 06:40:00,71.6,65.5,30.15,SE,145,0.0,0.0,81,0.00,,---,0.00,VWS V14.01,2013-05-11 10:40:00,
2013-05-11 06:45:00,71.6,65.5,30.15,SE,145,0.0,0.0,81,0.00,,---,0.00,VWS V14.01,2013-05-11 10:45:00,
2013-05-11 06:50:00,71.6,65.5,30.15,SE,146,0.0,0.0,81,0.00,,---,0.00,VWS V14.01,2013-05-11 10:50:00,
2013-05-11 06:55:00,71.6,65.5,30.15,SE,146,0.0,0.0,81,0.00,,---,0.00,VWS V14.01,2013-05-11 10:55:00,
2013-05-11 07:00:00,71.8,66.0,30.15,SE,146,0.0,0.0,82,0.00,,---,0.00,VWS V14.01,2013-05-11 11:00:00,
2013-05-11 07:05:00,72.0,66.2,30.15,SE,146,0.0,0.0,82,0.00,,---,0.00,VWS V14.01,2013-05-11 11:05:00,
2013-05-11 07:10:00,72.1,66.3,30.15,SE,145,0.0,0.0,82,0.00,,---,0.00,VWS V14.01,2013-05-11 11:10:00,
2013-05-11 07:15:00,73.4,67.6,30.15,SE,145,0.0,0.0,82,0.00,,---,0.00,VWS V14.01,2013-05-11 11:15:00,
2013-05-11 07:20:00,74.3,68.4,30.15,SE,143,0.0,0.0,82,0.00,,---,0.00,VWS V14.01,2013-05-11 11:20:00,
2013-05-11 07:25:00,75.0,69.5,30.15,SE,126,0.0,0.0,83,0.00,,---,0.00,VWS V14.01,2013-05-11 11:25:00,
2013-05-11 07:31:00,76.3,70.4,30.15,SE,126,0.0,0.0,82,0.00,,---,0.00,VWS V14.01,2013-05-11 11:31:00,
2013-05-11 07:36:00,77.5,70.9,30.15,SE,126,0.0,0.0,80,0.00,,---,0.00,VWS V14.01,2013-05-11 11:36:00,
2013-05-11 07:41:00,78.6,71.6,30.18,SE,126,0.0,0.0,79,0.00,,---,0.00,VWS V14.01,2013-05-11 11:41:00,
2013-05-11 07:46:00,78.6,68.8,30.18,ESE,112,0.0,0.0,72,0.00,,---,0.00,VWS V14.01,2013-05-11 11:46:00,
2013-05-11 07:51:00,79.7,68.6,30.18,ESE,123,0.0,0.0,69,0.00,,---,0.00,VWS V14.01,2013-05-11 11:51:00,
2013-05-11 07:56:00,80.6,69.1,30.18,SSE,153,0.0,0.0,68,0.00,,---,0.00,VWS V14.01,2013-05-11 11:56:00,
2013-05-11 08:01:00,81.0,58.3,30.18,SSE,151,0.0,0.0,46,0.00,,---,0.00,VWS V14.01,2013-05-11 12:01:00,
2013-05-11 08:06:00,81.7,58.3,30.18,ESE,117,0.0,0.0,45,0.00,,---,0.00,VWS V14.01,2013-05-11 12:06:00,
2013-05-11 08:11:00,82.0,56.7,30.18,ESE,105,0.0,0.0,42,0.00,,---,0.00,VWS V14.01,2013-05-11 12:11:00,
2013-05-11 08:16:00,82.2,55.5,30.18,SSE,159,3.1,3.1,40,0.00,,---,0.00,VWS V14.01,2013-05-11 12:16:00,
2013-05-11 08:21:00,82.4,55.0,30.18,SSE,164,4.0,4.0,39,0.00,,---,0.00,VWS V14.01,2013-05-11 12:21:00,
2013-05-11 08:26:00,82.6,55.1,30.18,SE,134,4.0,4.0,39,0.00,,---,0.00,VWS V14.01,2013-05-11 12:26:00,
2013-05-11 08:32:00,82.8,53.9,30.18,SSE,159,4.0,4.0,37,0.00,,---,0.00,VWS V14.01,2013-05-11 12:32:00,
2013-05-11 08:37:00,82.8,53.1,30.18,SE,128,5.8,7.6,36,0.00,,---,0.00,VWS V14.01,2013-05-11 12:37:00,
2013-05-11 08:42:00,83.1,53.4,30.18,SE,137,5.8,5.8,36,0.00,,---,0.00,VWS V14.01,2013-05-11 12:42:00,
2013-05-11 08:47:00,83.5,54.5,30.18,ESE,116,6.3,6.3,37,0.00,,---,0.00,VWS V14.01,2013-05-11 12:47:00,
2013-05-11 08:52:00,84.4,54.5,30.18,ESE,103,3.1,3.1,36,0.00,,---,0.00,VWS V14.01,2013-05-11 12:52:00,
2013-05-11 08:57:00,84.4,52.2,30.18,South,186,3.6,5.4,33,0.00,,---,0.00,VWS V14.01,2013-05-11 12:57:00,
2013-05-11 09:02:00,82.6,52.2,30.18,East,93,4.0,4.0,35,0.00,,---,0.00,VWS V14.01,2013-05-11 13:02:00,
2013-05-11 09:07:00,82.8,54.6,30.18,SSE,166,4.0,4.0,38,0.00,,---,0.00,VWS V14.01,2013-05-11 13:07:00,
2013-05-11 09:12:00,85.1,55.9,30.18,SSE,153,2.2,2.2,37,0.00,,---,0.00,VWS V14.01,2013-05-11 13:12:00,
2013-05-11 09:17:00,86.5,50.5,30.18,East,100,3.1,3.1,29,0.00,,---,0.00,VWS V14.01,2013-05-11 13:17:00,
2013-05-11 09:22:00,86.9,48.9,30.18,SE,133,4.0,5.4,27,0.00,,---,0.00,VWS V14.01,2013-05-11 13:22:00,
2013-05-11 09:27:00,87.1,49.1,30.18,SSE,165,3.1,3.1,27,0.00,,---,0.00,VWS V14.01,2013-05-11 13:27:00,
2013-05-11 09:32:00,87.1,50.1,30.18,SE,138,6.3,6.3,28,0.00,,---,0.00,VWS V14.01,2013-05-11 13:32:00,
2013-05-11 09:37:00,87.1,51.0,30.18,East,98,3.6,3.6,29,0.00,,---,0.00,VWS V14.01,2013-05-11 13:37:00,
2013-05-11 09:42:00,84.9,48.2,30.18,SE,129,8.7,8.7,28,0.00,,---,0.00,VWS V14.01,2013-05-11 13:42:00,
2013-05-11 09:47:00,85.3,49.5,30.18,SSE,151,4.9,4.9,29,0.00,,---,0.00,VWS V14.01,2013-05-11 13:47:00,
2013-05-11 09:52:00,85.6,50.7,30.18,SSW,205,4.0,4.0,30,0.00,,---,0.00,VWS V14.01,2013-05-11 13:52:00,
2013-05-11 09:58:00,86.0,49.1,30.18,WSW,238,0.0,4.9,28,0.00,,---,0.00,VWS V14.01,2013-05-11 13:58:00,
2013-05-11 10:03:00,86.7,49.8,30.18,SSE,149,4.0,4.0,28,0.00,,---,0.00,VWS V14.01,2013-05-11 14:03:00,
2013-05-11 10:08:00,86.9,50.8,30.18,South,188,3.1,7.6,29,0.00,,---,0.00,VWS V14.01,2013-05-11 14:08:00,
2013-05-11 10:13:00,86.4,49.4,30.18,South,181,2.7,2.7,28,0.00,,---,0.00,VWS V14.01,2013-05-11 14:13:00,
2013-05-11 10:18:00,86.2,50.2,30.18,SSE,163,2.7,2.7,29,0.00,,---,0.00,VWS V14.01,2013-05-11 14:18:00,
2013-05-11 10:23:00,86.5,47.6,30.18,SSE,149,2.7,2.7,26,0.00,,---,0.00,VWS V14.01,2013-05-11 14:23:00,
2013-05-11 10:28:00,84.9,49.2,30.18,SSW,205,3.6,3.6,29,0.00,,---,0.00,VWS V14.01,2013-05-11 14:28:00,
2013-05-11 10:33:00,84.0,49.3,30.18,SE,131,0.0,3.1,30,0.00,,---,0.00,VWS V14.01,2013-05-11 14:33:00,
2013-05-11 10:38:00,85.6,50.7,30.18,SW,215,3.1,3.1,30,0.00,,---,0.00,VWS V14.01,2013-05-11 14:38:00,
2013-05-11 10:43:00,87.1,50.1,30.18,SSE,165,4.9,4.9,28,0.00,,---,0.00,VWS V14.01,2013-05-11 14:43:00,
2013-05-11 10:49:00,87.4,49.4,30.18,SE,137,5.4,5.4,27,0.00,,---,0.00,VWS V14.01,2013-05-11 14:49:00,
2013-05-11 10:54:00,86.7,49.8,30.18,SE,144,2.7,2.7,28,0.00,,---,0.00,VWS V14.01,2013-05-11 14:54:00,
2013-05-11 10:59:00,86.7,50.7,30.18,SE,126,4.0,4.0,29,0.00,,---,0.00,VWS V14.01,2013-05-11 14:59:00,
2013-05-11 11:04:00,85.1,49.3,30.18,SE,142,2.7,2.7,29,0.00,,---,0.00,VWS V14.01,2013-05-11 15:04:00,
2013-05-11 11:09:00,86.4,51.3,30.18,SSE,150,3.1,5.8,30,0.00,,---,0.00,VWS V14.01,2013-05-11 15:09:00,
2013-05-11 11:14:00,87.1,50.1,30.18,ESE,118,3.1,3.1,28,0.00,,---,0.00,VWS V14.01,2013-05-11 15:14:00,
2013-05-11 11:19:00,86.7,49.8,30.18,ESE,113,4.0,4.0,28,0.00,,---,0.00,VWS V14.01,2013-05-11 15:19:00,
2013-05-11 11:24:00,86.4,47.5,30.18,SE,141,4.0,4.0,26,0.00,,---,0.00,VWS V14.01,2013-05-11 15:24:00,
2013-05-11 11:29:00,86.4,49.4,30.18,South,182,3.1,3.1,28,0.00,,---,0.00,VWS V14.01,2013-05-11 15:29:00,
2013-05-11 11:34:00,86.9,50.8,30.18,ESE,114,5.8,6.3,29,0.00,,---,0.00,VWS V14.01,2013-05-11 15:34:00,
2013-05-11 11:39:00,86.0,49.1,30.18,SSE,163,0.0,0.0,28,0.00,,---,0.00,VWS V14.01,2013-05-11 15:39:00,
2013-05-11 11:45:00,86.0,49.1,30.18,South,171,4.9,6.3,28,0.00,,---,0.00,VWS V14.01,2013-05-11 15:45:00,
2013-05-11 11:50:00,87.6,48.5,30.18,SE,130,6.3,6.3,26,0.00,,---,0.00,VWS V14.01,2013-05-11 15:50:00,
2013-05-11 12:01:00,86.5,47.6,30.18,South,169,4.9,4.9,26,0.00,,---,0.00,VWS V14.01,2013-05-11 16:01:00,
2013-05-11 12:07:00,86.5,49.6,30.18,WSW,240,3.1,3.1,28,0.00,,---,0.00,VWS V14.01,2013-05-11 16:07:00,
2013-05-11 12:12:00,86.7,47.8,30.18,SE,144,5.4,5.4,26,0.00,,---,0.00,VWS V14.01,2013-05-11 16:12:00,
2013-05-11 12:19:00,85.8,49.9,30.18,ESE,116,3.1,4.0,29,0.00,,---,0.00,VWS V14.01,2013-05-11 16:19:00,
2013-05-11 12:24:00,85.3,49.5,30.18,SSE,168,3.1,4.9,29,0.00,,---,0.00,VWS V14.01,2013-05-11 16:24:00,
2013-05-11 12:29:00,84.9,49.2,30.18,SSE,158,5.4,5.4,29,0.00,,---,0.00,VWS V14.01,2013-05-11 16:29:00,
2013-05-11 12:37:00,84.6,48.8,30.15,SSE,152,3.1,3.1,29,0.00,,---,0.00,VWS V14.01,2013-05-11 16:37:00,
2013-05-11 12:42:00,85.8,49.9,30.15,SSE,158,6.7,7.6,29,0.00,,---,0.00,VWS V14.01,2013-05-11 16:42:00,
2013-05-11 12:48:00,86.0,49.1,30.15,SE,126,8.7,8.7,28,0.00,,---,0.00,VWS V14.01,2013-05-11 16:48:00,
2013-05-11 13:12:00,87.1,48.1,30.15,SSW,196,3.6,3.6,26,0.00,,---,0.00,VWS V14.01,2013-05-11 17:12:00,
2013-05-11 13:17:00,87.1,47.0,30.15,SE,133,5.8,5.8,25,0.00,,---,0.00,VWS V14.01,2013-05-11 17:17:00,
2013-05-11 13:22:00,88.7,49.5,30.15,South,174,0.0,8.1,26,0.00,,---,0.00,VWS V14.01,2013-05-11 17:22:00,
2013-05-11 13:27:00,88.7,49.5,30.15,ESE,122,11.0,11.0,26,0.00,,---,0.00,VWS V14.01,2013-05-11 17:27:00,
2013-05-11 13:32:00,88.2,46.9,30.15,SE,133,8.3,8.3,24,0.00,,---,0.00,VWS V14.01,2013-05-11 17:32:00,
2013-05-11 13:38:00,88.3,47.0,30.15,SSE,155,5.4,5.4,24,0.00,,---,0.00,VWS V14.01,2013-05-11 17:38:00,
2013-05-11 13:43:00,88.5,44.9,30.15,SE,139,2.7,5.8,22,0.00,,---,0.00,VWS V14.01,2013-05-11 17:43:00,
2013-05-11 13:48:00,89.4,49.0,30.15,SE,132,3.1,3.6,25,0.00,,---,0.00,VWS V14.01,2013-05-11 17:48:00,
2013-05-11 13:53:00,89.8,48.2,30.15,South,181,4.5,4.5,24,0.00,,---,0.00,VWS V14.01,2013-05-11 17:53:00,
2013-05-11 13:58:00,90.0,46.1,30.15,ESE,102,4.0,5.4,22,0.00,,---,0.00,VWS V14.01,2013-05-11 17:58:00,
2013-05-11 14:03:00,90.0,44.8,30.15,SSE,160,4.0,7.6,21,0.00,,---,0.00,VWS V14.01,2013-05-11 18:03:00,
2013-05-11 14:08:00,89.4,45.6,30.12,ESE,109,0.0,3.1,22,0.00,,---,0.00,VWS V14.01,2013-05-11 18:08:00,
2013-05-11 14:13:00,90.3,51.8,30.12,South,177,3.6,3.6,27,0.00,,---,0.00,VWS V14.01,2013-05-11 18:13:00,
2013-05-11 14:18:00,89.8,44.7,30.12,ESE,117,8.7,8.7,21,0.00,,---,0.00,VWS V14.01,2013-05-11 18:18:00,
2013-05-11 14:23:00,88.5,44.9,30.12,SE,140,4.9,5.4,22,0.00,,---,0.00,VWS V14.01,2013-05-11 18:23:00,
2013-05-11 14:28:00,87.6,46.4,30.12,SSE,162,7.6,8.7,24,0.00,,---,0.00,VWS V14.01,2013-05-11 18:28:00,
2013-05-11 14:34:00,86.7,47.8,30.12,ESE,109,5.8,5.8,26,0.00,,---,0.00,VWS V14.01,2013-05-11 18:34:00,
2013-05-11 14:39:00,86.2,49.3,30.12,ESE,117,2.7,3.1,28,0.00,,---,0.00,VWS V14.01,2013-05-11 18:39:00,
2013-05-11 14:44:00,85.6,49.8,30.12,ESE,121,5.8,5.8,29,0.00,,---,0.00,VWS V14.01,2013-05-11 18:44:00,
2013-05-11 14:49:00,85.5,49.6,30.12,SE,129,7.6,7.6,29,0.00,,---,0.00,VWS V14.01,2013-05-11 18:49:00,
2013-05-11 14:54:00,84.9,49.2,30.12,ESE,114,7.6,8.1,29,0.00,,---,0.00,VWS V14.01,2013-05-11 18:54:00,
2013-05-11 14:59:00,84.4,49.6,30.12,ESE,114,7.2,7.6,30,0.00,,---,0.00,VWS V14.01,2013-05-11 18:59:00,
2013-05-11 15:04:00,83.8,50.9,30.12,South,182,2.7,2.7,32,0.00,,---,0.00,VWS V14.01,2013-05-11 19:04:00,
2013-05-11 15:09:00,83.1,50.2,30.12,SE,142,10.1,10.1,32,0.00,,---,0.00,VWS V14.01,2013-05-11 19:09:00,
2013-05-11 15:14:00,82.9,50.1,30.12,ESE,118,8.1,8.1,32,0.00,,---,0.00,VWS V14.01,2013-05-11 19:14:00,
2013-05-11 15:19:00,83.1,51.1,30.12,SSE,164,6.3,6.3,33,0.00,,---,0.00,VWS V14.01,2013-05-11 19:19:00,
2013-05-11 15:24:00,82.8,49.1,30.12,SSE,167,8.1,8.1,31,0.00,,---,0.00,VWS V14.01,2013-05-11 19:24:00,
2013-05-11 15:29:00,82.0,48.5,30.12,South,187,7.6,8.3,31,0.00,,---,0.00,VWS V14.01,2013-05-11 19:29:00,
2013-05-11 15:34:00,81.9,48.3,30.12,SSW,207,2.7,3.1,31,0.00,,---,0.00,VWS V14.01,2013-05-11 19:34:00,
2013-05-11 15:39:00,82.9,46.5,30.12,NW,322,2.7,2.7,28,0.00,,---,0.00,VWS V14.01,2013-05-11 19:39:00,
2013-05-11 15:44:00,83.7,47.1,30.12,NE,50,7.6,7.6,28,0.00,,---,0.00,VWS V14.01,2013-05-11 19:44:00,
2013-05-11 15:49:00,83.1,47.6,30.12,South,171,8.7,8.7,29,0.00,,---,0.00,VWS V14.01,2013-05-11 19:49:00,
2013-05-11 15:55:00,81.7,45.4,30.12,SE,127,8.1,8.7,28,0.00,,---,0.00,VWS V14.01,2013-05-11 19:55:00,
2013-05-11 16:00:00,82.0,45.8,30.12,East,95,11.0,11.0,28,0.00,,---,0.00,VWS V14.01,2013-05-11 20:00:00,
2013-05-11 16:05:00,82.4,44.1,30.12,East,95,7.6,7.6,26,0.00,,---,0.00,VWS V14.01,2013-05-11 20:05:00,
2013-05-11 16:10:00,82.9,45.6,30.12,ESE,117,10.5,10.5,27,0.00,,---,0.00,VWS V14.01,2013-05-11 20:10:00,
2013-05-11 16:15:00,83.3,47.8,30.12,SE,127,10.5,10.5,29,0.00,,---,0.00,VWS V14.01,2013-05-11 20:15:00,
2013-05-11 16:20:00,83.7,49.8,30.12,SE,127,10.5,10.5,31,0.00,,---,0.00,VWS V14.01,2013-05-11 20:20:00,
2013-05-11 16:25:00,83.7,49.8,30.12,ESE,116,5.8,5.8,31,0.00,,---,0.00,VWS V14.01,2013-05-11 20:25:00,
2013-05-11 16:30:00,83.7,49.8,30.12,ESE,113,5.8,5.8,31,0.00,,---,0.00,VWS V14.01,2013-05-11 20:30:00,
2013-05-11 16:35:00,83.1,50.2,30.12,SE,136,6.7,6.7,32,0.00,,---,0.00,VWS V14.01,2013-05-11 20:35:00,
2013-05-11 16:40:00,83.3,51.2,30.12,East,85,10.1,10.1,33,0.00,,---,0.00,VWS V14.01,2013-05-11 20:40:00,
2013-05-11 16:45:00,84.0,50.2,30.12,ESE,116,3.6,3.6,31,0.00,,---,0.00,VWS V14.01,2013-05-11 20:45:00,
2013-05-11 16:51:00,84.0,49.3,30.12,ESE,123,5.8,5.8,30,0.00,,---,0.00,VWS V14.01,2013-05-11 20:51:00,
2013-05-11 16:56:00,84.0,50.2,30.09,SSE,162,2.7,4.0,31,0.00,,---,0.00,VWS V14.01,2013-05-11 20:56:00,
2013-05-11 17:01:00,83.8,49.1,30.09,SSE,163,3.1,3.1,30,0.00,,---,0.00,VWS V14.01,2013-05-11 21:01:00,
2013-05-11 17:06:00,83.3,49.5,30.09,South,169,2.7,3.1,31,0.00,,---,0.00,VWS V14.01,2013-05-11 21:06:00,
2013-05-11 17:11:00,82.9,50.1,30.12,ESE,110,5.8,5.8,32,0.00,,---,0.00,VWS V14.01,2013-05-11 21:11:00,
2013-05-11 17:16:00,82.9,50.1,30.12,South,179,5.8,5.8,32,0.00,,---,0.00,VWS V14.01,2013-05-11 21:16:00,
2013-05-11 17:21:00,82.6,49.8,30.12,SSW,208,3.1,5.4,32,0.00,,---,0.00,VWS V14.01,2013-05-11 21:21:00,
2013-05-11 17:26:00,82.4,49.6,30.09,SE,130,2.7,2.7,32,0.00,,---,0.00,VWS V14.01,2013-05-11 21:26:00,
2013-05-11 17:31:00,82.2,49.5,30.09,SSE,156,4.9,6.3,32,0.00,,---,0.00,VWS V14.01,2013-05-11 21:31:00,
2013-05-11 17:36:00,82.2,49.5,30.09,ESE,110,3.1,3.1,32,0.00,,---,0.00,VWS V14.01,2013-05-11 21:36:00,
2013-05-11 17:41:00,81.9,49.1,30.12,South,171,3.6,3.6,32,0.00,,---,0.00,VWS V14.01,2013-05-11 21:41:00,
2013-05-11 17:46:00,81.9,49.1,30.12,South,190,5.8,5.8,32,0.00,,---,0.00,VWS V14.01,2013-05-11 21:46:00,
2013-05-11 17:51:00,81.7,49.8,30.12,SSW,196,3.6,3.6,33,0.00,,---,0.00,VWS V14.01,2013-05-11 21:51:00,
2013-05-11 17:57:00,81.5,49.7,30.12,South,180,5.8,5.8,33,0.00,,---,0.00,VWS V14.01,2013-05-11 21:57:00,
2013-05-11 18:02:00,81.3,50.3,30.09,South,172,5.4,5.4,34,0.00,,---,0.00,VWS V14.01,2013-05-11 22:02:00,
2013-05-11 18:07:00,81.3,50.3,30.09,SSE,151,3.1,3.1,34,0.00,,---,0.00,VWS V14.01,2013-05-11 22:07:00,
2013-05-11 18:12:00,81.3,50.3,30.09,ESE,120,3.1,3.1,34,0.00,,---,0.00,VWS V14.01,2013-05-11 22:12:00,
2013-05-11 18:17:00,81.1,50.1,30.12,ESE,116,5.4,5.4,34,0.00,,---,0.00,VWS V14.01,2013-05-11 22:17:00,
2013-05-11 18:22:00,81.1,50.1,30.12,South,175,4.0,4.0,34,0.00,,---,0.00,VWS V14.01,2013-05-11 22:22:00,
2013-05-11 18:27:00,81.0,50.8,30.12,SW,216,3.1,3.1,35,0.00,,---,0.00,VWS V14.01,2013-05-11 22:27:00,
2013-05-11 18:32:00,80.8,50.6,30.12,SSW,195,3.1,5.8,35,0.00,,---,0.00,VWS V14.01,2013-05-11 22:32:00,
2013-05-11 18:37:00,80.6,50.5,30.12,SSE,155,5.8,5.8,35,0.00,,---,0.00,VWS V14.01,2013-05-11 22:37:00,
2013-05-11 18:42:00,80.6,50.5,30.12,South,190,4.9,4.9,35,0.00,,---,0.00,VWS V14.01,2013-05-11 22:42:00,
2013-05-11 18:47:00,80.6,50.5,30.12,South,189,5.4,5.4,35,0.00,,---,0.00,VWS V14.01,2013-05-11 22:47:00,
2013-05-11 18:52:00,80.6,50.5,30.12,SSW,204,3.1,3.1,35,0.00,,---,0.00,VWS V14.01,2013-05-11 22:52:00,
2013-05-11 18:57:00,80.4,51.0,30.12,ESE,111,4.5,4.5,36,0.00,,---,0.00,VWS V14.01,2013-05-11 22:57:00,
2013-05-11 19:02:00,80.4,51.0,30.12,SSE,150,3.1,3.1,36,0.00,,---,0.00,VWS V14.01,2013-05-11 23:02:00,
2013-05-11 19:08:00,80.4,52.5,30.12,SSE,166,2.7,2.7,38,0.00,,---,0.00,VWS V14.01,2013-05-11 23:08:00,
2013-05-11 19:13:00,80.1,53.6,30.12,SSW,205,0.0,0.0,40,0.00,,---,0.00,VWS V14.01,2013-05-11 23:13:00,
2013-05-11 19:18:00,79.5,54.4,30.12,SW,226,0.0,2.2,42,0.00,,---,0.00,VWS V14.01,2013-05-11 23:18:00,
2013-05-11 19:23:00,79.2,54.1,30.12,WSW,253,0.0,0.0,42,0.00,,---,0.00,VWS V14.01,2013-05-11 23:23:00,
2013-05-11 19:28:00,78.6,54.9,30.15,West,280,2.7,5.8,44,0.00,,---,0.00,VWS V14.01,2013-05-11 23:28:00,
2013-05-11 19:33:00,78.4,54.7,30.15,WNW,290,3.1,3.1,44,0.00,,---,0.00,VWS V14.01,2013-05-11 23:33:00,
2013-05-11 19:38:00,77.5,55.2,30.15,WSW,245,0.0,2.7,46,0.00,,---,0.00,VWS V14.01,2013-05-11 23:38:00,
2013-05-11 19:43:00,77.2,55.4,30.15,WSW,245,0.0,2.2,47,0.00,,---,0.00,VWS V14.01,2013-05-11 23:43:00,
2013-05-11 19:48:00,76.1,61.2,30.15,WNW,283,3.6,3.6,60,0.00,,---,0.00,VWS V14.01,2013-05-11 23:48:00,
2013-05-11 19:53:00,75.0,63.8,30.15,WNW,298,0.0,2.7,68,0.00,,---,0.00,VWS V14.01,2013-05-11 23:53:00,
2013-05-11 19:59:00,74.3,65.5,30.15,WSW,245,3.6,3.6,74,0.08,,---,0.08,VWS V14.01,2013-05-11 23:59:00,
2013-05-11 20:04:00,73.8,65.0,30.15,WSW,257,0.0,0.0,74,0.08,,---,0.08,VWS V14.01,2013-05-12 00:04:00,
2013-05-11 20:09:00,73.2,64.1,30.15,SSE,161,0.0,2.7,73,0.08,,---,0.08,VWS V14.01,2013-05-12 00:09:00,
2013-05-11 20:14:00,72.9,65.6,30.15,SE,125,5.8,5.8,78,0.08,,---,0.08,VWS V14.01,2013-05-12 00:14:00,
2013-05-11 20:19:00,72.7,65.8,30.15,SE,133,4.0,4.0,79,0.08,,---,0.08,VWS V14.01,2013-05-12 00:19:00,
2013-05-11 20:24:00,72.3,65.8,30.15,ESE,114,3.6,3.6,80,0.08,,---,0.08,VWS V14.01,2013-05-12 00:24:00,
2013-05-11 20:30:00,72.1,66.0,30.15,SSE,158,5.8,5.8,81,0.08,,---,0.00,VWS V14.01,2013-05-12 00:30:00,
2013-05-11 20:35:00,71.8,65.6,30.15,SSE,160,3.6,3.6,81,0.08,,---,0.08,VWS V14.01,2013-05-12 00:35:00,
2013-05-11 20:40:00,71.6,65.5,30.15,SSE,151,0.0,2.2,81,0.08,,---,0.08,VWS V14.01,2013-05-12 00:40:00,
2013-05-11 20:45:00,71.2,65.1,30.15,SSE,150,0.0,0.0,81,0.08,,---,0.08,VWS V14.01,2013-05-12 00:45:00,
2013-05-11 20:50:00,71.1,65.3,30.15,SSE,150,0.0,0.0,82,0.08,,---,0.08,VWS V14.01,2013-05-12 00:50:00,
2013-05-11 20:55:00,71.1,65.3,30.15,SSE,151,0.0,0.0,82,0.08,,---,0.08,VWS V14.01,2013-05-12 00:55:00,
2013-05-11 21:00:00,71.1,65.3,30.15,SE,136,0.0,0.0,82,0.00,,---,0.08,VWS V14.01,2013-05-12 01:00:00,
2013-05-11 21:05:00,71.1,65.3,30.15,SE,146,0.0,0.0,82,0.00,,---,0.08,VWS V14.01,2013-05-12 01:05:00,
2013-05-11 21:10:00,70.9,65.1,30.15,SE,126,0.0,0.0,82,0.00,,---,0.08,VWS V14.01,2013-05-12 01:10:00,
2013-05-11 21:15:00,70.9,65.5,30.15,SE,126,0.0,0.0,83,0.00,,---,0.08,VWS V14.01,2013-05-12 01:15:00,
2013-05-11 21:20:00,70.9,65.5,30.15,SE,126,0.0,0.0,83,0.00,,---,0.08,VWS V14.01,2013-05-12 01:20:00,
2013-05-11 21:25:00,71.1,66.0,30.15,SE,126,0.0,0.0,84,0.00,,---,0.08,VWS V14.01,2013-05-12 01:25:00,
2013-05-11 21:31:00,71.1,66.0,30.15,SE,126,0.0,0.0,84,0.00,,---,0.08,VWS V14.01,2013-05-12 01:31:00,
2013-05-11 21:36:00,70.9,65.8,30.15,SE,126,0.0,0.0,84,0.00,,---,0.08,VWS V14.01,2013-05-12 01:36:00,
2013-05-11 21:41:00,70.9,65.8,30.15,SE,126,0.0,0.0,84,0.00,,---,0.08,VWS V14.01,2013-05-12 01:41:00,
2013-05-11 21:46:00,70.7,65.6,30.15,SE,126,0.0,0.0,84,0.00,,---,0.08,VWS V14.01,2013-05-12 01:46:00,
2013-05-11 21:51:00,70.7,65.6,30.15,SE,126,0.0,0.0,84,0.00,,---,0.08,VWS V14.01,2013-05-12 01:51:00,
2013-05-11 21:56:00,70.7,65.6,30.15,SE,126,0.0,0.0,84,0.00,,---,0.08,VWS V14.01,2013-05-12 01:56:00,
2013-05-11 22:01:00,70.9,65.8,30.15,SSE,151,0.0,0.0,84,0.00,,---,0.08,VWS V14.01,2013-05-12 02:01:00,
2013-05-11 22:06:00,70.9,65.8,30.15,SSE,151,0.0,0.0,84,0.00,,---,0.08,VWS V14.01,2013-05-12 02:06:00,
2013-05-11 22:11:00,70.9,65.8,30.15,SSE,151,0.0,0.0,84,0.00,,---,0.08,VWS V14.01,2013-05-12 02:11:00,
2013-05-11 22:16:00,70.9,65.8,30.18,SSE,151,0.0,0.0,84,0.00,,---,0.08,VWS V14.01,2013-05-12 02:16:00,
2013-05-11 22:21:00,70.9,65.8,30.18,SSE,151,0.0,0.0,84,0.00,,---,0.08,VWS V14.01,2013-05-12 02:21:00,
2013-05-11 22:26:00,71.1,66.3,30.18,SSE,151,0.0,0.0,85,0.00,,---,0.08,VWS V14.01,2013-05-12 02:26:00,
2013-05-11 22:31:00,71.2,66.5,30.18,SSE,151,0.0,0.0,85,0.00,,---,0.08,VWS V14.01,2013-05-12 02:31:00,
2013-05-11 22:37:00,71.4,66.7,30.18,SSE,151,0.0,0.0,85,0.00,,---,0.08,VWS V14.01,2013-05-12 02:37:00,
2013-05-11 22:42:00,71.6,66.9,30.18,SSE,151,0.0,0.0,85,0.00,,---,0.08,VWS V14.01,2013-05-12 02:42:00,
2013-05-11 22:47:00,71.8,67.0,30.18,SSE,151,0.0,0.0,85,0.00,,---,0.08,VWS V14.01,2013-05-12 02:47:00,
2013-05-11 22:52:00,72.0,67.2,30.18,SSE,151,0.0,0.0,85,0.00,,---,0.08,VWS V14.01,2013-05-12 02:52:00,
2013-05-11 22:57:00,72.0,67.2,30.18,SSE,151,0.0,0.0,85,0.00,,---,0.08,VWS V14.01,2013-05-12 02:57:00,
2013-05-11 23:02:00,72.0,67.2,30.18,SSE,151,0.0,0.0,85,0.00,,---,0.08,VWS V14.01,2013-05-12 03:02:00,
2013-05-11 23:07:00,72.0,67.2,30.18,SSE,151,0.0,0.0,85,0.00,,---,0.08,VWS V14.01,2013-05-12 03:07:00,
2013-05-11 23:12:00,72.1,67.4,30.18,SSE,151,0.0,0.0,85,0.00,,---,0.08,VWS V14.01,2013-05-12 03:12:00,
2013-05-11 23:17:00,72.1,67.4,30.18,SSE,151,0.0,0.0,85,0.00,,---,0.08,VWS V14.01,2013-05-12 03:17:00,
2013-05-11 23:22:00,72.1,67.4,30.18,SSE,151,0.0,0.0,85,0.00,,---,0.08,VWS V14.01,2013-05-12 03:22:00,
2013-05-11 23:27:00,72.1,67.4,30.18,SSE,149,0.0,0.0,85,0.00,,---,0.08,VWS V14.01,2013-05-12 03:27:00,
2013-05-11 23:33:00,72.3,67.9,30.18,East,86,0.0,0.0,86,0.00,,---,0.08,VWS V14.01,2013-05-12 03:33:00,
2013-05-11 23:38:00,72.1,67.7,30.18,NNE,18,0.0,0.0,86,0.00,,---,0.08,VWS V14.01,2013-05-12 03:38:00,
2013-05-11 23:43:00,72.3,67.9,30.18,ENE,62,2.7,2.7,86,0.00,,---,0.08,VWS V14.01,2013-05-12 03:43:00,
2013-05-11 23:48:00,72.3,67.9,30.18,ENE,57,0.0,0.0,86,0.00,,---,0.08,VWS V14.01,2013-05-12 03:48:00,
2013-05-11 23:53:00,72.3,67.6,30.18,NE,56,0.0,0.0,85,0.00,,---,0.08,VWS V14.01,2013-05-12 03:53:00,
2013-05-11 23:58:00,72.1,67.4,30.18,ENE,63,0.0,0.0,85,0.00,,---,0.08,VWS V14.01,2013-05-12 03:58:00,